User: anonymous   Login
Location: Fort Hays State University
(38.8712°N, 99.3432°W)
Time: 10:06:47
(UTC-05:00)
Language:

ALOS - Orbit

View from above orbital plane
View from above orbital plane
View from above satellite
View from above satellite

Ground track
Ground track

The orbit data is extracted from the following two-line orbital elements,

1 28931U 06002A   16205.21040170  .00000237  00000-0  55757-4 0  9995
2 28931  97.8815 242.3591 0000524  51.0701 309.0547 14.62216077559388
Epoch (UTC): 23 July 2016 05:02:58
Eccentricity: 0.0000524
inclination: 97.8815°
perigee height: 685 km
apogee height: 686 km
right ascension of ascending node: 242.3591°
argument of perigee: 51.0701°
revolutions per day: 14.62216077
mean anomaly at epoch: 309.0547°
orbit number at epoch: 55938

The dashed part of the orbit path shows where the satellite is in the earth's shadow,  

DLR